Regional Weather Roundup
Issued by NWS

Home | Current Version | Previous Version | Text Only | Print | Product List | Glossary On
Versions: 1 2 3 4 5 6 7 8 9 10 11 12 13 14 15 16 17 18 19 20 21 22 23 24 25 26 27 28 29 30 31 32 33 34 35 36 37 38 39 40 41 42 43 44 45 46 47 48 49 50
000
ASUS46 KSEW 100020
RWRWA

WASHINGTON REGIONAL WEATHER ROUNDUP
NATIONAL WEATHER SERVICE SEATTLE WA
500 PM PDT SUN AUG 09 2020

NOTE:"FAIR" INDICATES FEW OR NO CLOUDS BELOW 12,000 FEET WITH NO
SIGNIFICANT WEATHER AND/OR OBSTRUCTIONS TO VISIBILITY.

WAZ507-509-555>559-100100-
SEATTLE, TACOMA, EVERETT, AND VICINITY

CITY           SKY/WX    TMP DP  RH WIND       PRES   REMARKS
EVERETT        SUNNY     72  50  45 N9        30.27F
6HR MIN TEMP:  64; 6HR MAX TEMP:  72;

BOEING FIELD   SUNNY     75  48  38 NW9G18    30.24S
6HR MIN TEMP:  66; 6HR MAX TEMP:  76;

RENTON         SUNNY     76  50  40 NW13      30.24S
6HR MIN TEMP:  66; 6HR MAX TEMP:  77;

SEATAC AIRPORT SUNNY     77  49  37 NW10      30.26S
6HR MIN TEMP:  66; 6HR MAX TEMP:  77;

JBLM-MCCHORD   SUNNY     76  47  35 N14       30.25S
6HR MIN TEMP:  68; 6HR MAX TEMP:  76;

PUYALLUP       FAIR      77  48  36 VRB6G13   30.25S
BREMERTON      SUNNY     75  52  44 NE10G20   30.25F
6HR MIN TEMP:  68; 6HR MAX TEMP:  76;

JBLM-FT LEWIS  SUNNY     77  53  43 N12       30.24S
6HR MIN TEMP:  69; 6HR MAX TEMP:  77;

TACOMA NARROWS SUNNY     73  45  36 NE13      30.25S
6HR MIN TEMP:  65; 6HR MAX TEMP:  74;

$$

WAZ001-503-506-510-514-515-100100-
NORTH INTERIOR

CITY           SKY/WX    TMP DP  RH WIND       PRES   REMARKS
BELLINGHAM     SUNNY     73  50  44 CALM      30.25F
6HR MIN TEMP:  64; 6HR MAX TEMP:  73;

FRIDAY HARBOR  SUNNY     72  52  49 SW6       30.27F
6HR MIN TEMP:  67; 6HR MAX TEMP:  76;

EASTSOUND      SUNNY     68  50  52 VRB3      30.25F
PORT ANGELES   SUNNY     72  48  42 VRB5      30.28F
6HR MIN TEMP:  65; 6HR MAX TEMP:  73;

EDIZ HOOK      FAIR     N/A N/A N/A SW5       30.27S
PORT TOWNSEND  FAIR      73  50  43 VRB5      30.25S
NAS WHIDBEY    MOSUNNY   67  51  56 W9        30.30F
6HR MIN TEMP:  60; 6HR MAX TEMP:  69;

ARLINGTON        N/A     74  56  53 W9        30.25F
6HR MIN TEMP:  66; 6HR MAX TEMP:  75;

BURLINGTON     SUNNY     77  52  41 NW7       30.25F
$$

WAZ020-022-039-040-504-511-512-100100-
SOUTHWEST INTERIOR

CITY           SKY/WX    TMP DP  RH WIND       PRES   REMARKS
SHELTON        SUNNY     79  51  37 E8        30.20F
6HR MIN TEMP:  68; 6HR MAX TEMP:  80;

OLYMPIA        SUNNY     78  49  35 NE6       30.23F
6HR MIN TEMP:  67; 6HR MAX TEMP:  79;

CHEHALIS       FAIR      79  50  36 NE14      30.22F
KELSO          SUNNY     82  47  29 NW9G18    30.18F
6HR MIN TEMP:  69; 6HR MAX TEMP:  82;

VANCOUVER      SUNNY     83  49  30 NW12G20   30.14F
6HR MIN TEMP:  68; 6HR MAX TEMP:  84;

SCAPPOOSE, OR  SUNNY     82  45  27 N17G24    30.14F
6HR MIN TEMP:  70; 6HR MAX TEMP:  83;

PORTLAND, OR   SUNNY     83  50  31 NW9G20    30.14F
6HR MIN TEMP:  66; 6HR MAX TEMP:  84;

$$

WAZ021-516-517-100100-
WASHINGTON COAST

CITY           SKY/WX    TMP DP  RH WIND       PRES   REMARKS
FORKS          SUNNY     71  54  54 NW9       30.26F
6HR MIN TEMP:  64; 6HR MAX TEMP:  72;

HOQUIAM        SUNNY     69  54  58 W10       30.25F
6HR MIN TEMP:  61; 6HR MAX TEMP:  71;

ASTORIA, OR    SUNNY     66  55  67 NW18G29   30.23F
6HR MIN TEMP:  65; 6HR MAX TEMP:  71;

$$

WAZ019-023-024-040-567>569-100100-
CASCADE MOUNTAINS AND COLUMBIA GORGE

CITY           SKY/WX    TMP DP  RH WIND       PRES   REMARKS
STAMPEDE PASS  SUNNY     66  45  46 VRB6      30.31R
6HR MIN TEMP:  58; 6HR MAX TEMP:  67;

TROUTDALE, OR  SUNNY     85  48  27 NW7       30.12F
6HR MIN TEMP:  67; 6HR MAX TEMP:  86;

HOOD RIVER, OR CLEAR     82  50  32 W6        30.09F
THE DALLES, OR SUNNY     88  44  21 VRB5      30.07F
6HR MIN TEMP:  74; 6HR MAX TEMP:  89;

$$

WAZ026-027-041>044-520-521-100100-
EAST SLOPES

CITY           SKY/WX    TMP DP  RH WIND       PRES   REMARKS
OMAK           SUNNY     87  40  19 NE9       30.11F
6HR MIN TEMP:  77; 6HR MAX TEMP:  87;

WENATCHEE      SUNNY     84  39  20 S5        30.09F
6HR MIN TEMP:  72; 6HR MAX TEMP:  85;

ELLENSBURG     SUNNY     85  42  22 NW15      30.13F
6HR MIN TEMP:  74; 6HR MAX TEMP:  86;

YAKIMA         SUNNY     85  39  19 S5        30.11F
6HR MIN TEMP:  75; 6HR MAX TEMP:  87;

SUNNYSIDE ARPT CLEAR     84  47  27 SE3       30.10
6HR MIN TEMP:  73; 6HR MAX TEMP:  84;

YAKIMA TC      FAIR      85  34  16 W9        30.10F
6HR MIN TEMP:  74; 6HR MAX TEMP:  86;

$$

WAZ028-034-035-100100-
COLUMBIA BASIN

CITY           SKY/WX    TMP DP  RH WIND       PRES   REMARKS
EPHRATA        SUNNY     86  37  17 W9        30.10F
6HR MIN TEMP:  78; 6HR MAX TEMP:  86;

MOSES LAKE     SUNNY     86  38  18 SW8       30.11F
6HR MIN TEMP:  81; 6HR MAX TEMP:  87;

PASCO          SUNNY     89  46  22 N6        30.09F
6HR MIN TEMP:  78; 6HR MAX TEMP:  89;

RICHLAND ARPT  CLEAR     88  42  19 E5        30.08
6HR MIN TEMP:  80; 6HR MAX TEMP:  89;

HERMISTON, OR  SUNNY     86  45  23 CALM      30.09F
6HR MIN TEMP:  75; 6HR MAX TEMP:  87;

$$

WAZ036>038-100100-
NORTHEAST WASHINGTON

CITY           SKY/WX    TMP DP  RH WIND       PRES   REMARKS
SPOKANE GEIGER MOSUNNY   81  35  19 W10       30.15S
6HR MIN TEMP:  71; 6HR MAX TEMP:  81;

SPOKANE FELTS  SUNNY     82  36  19 S7G16     30.13F
6HR MIN TEMP:  72; 6HR MAX TEMP:  83;

FAIRCHILD AFB  SUNNY     81  30  16 NW8       30.15F
6HR MIN TEMP:  73; 6HR MAX TEMP:  83;

COEURDALENE,ID SUNNY     80  34  19 N13G20    30.15S
6HR MIN TEMP:  70; 6HR MAX TEMP:  80;

DEER PARK      SUNNY     81  37  20 N12       30.15S
6HR MIN TEMP:  73; 6HR MAX TEMP:  81;

$$

WAZ029>033-100100-
SOUTHEAST WASHINGTON

CITY           SKY/WX    TMP DP  RH WIND       PRES   REMARKS
PULLMAN        SUNNY     78  38  23 W7        30.17F
6HR MIN TEMP:  68; 6HR MAX TEMP:  79;

LEWISTON, ID   SUNNY     85  42  22 W8        30.09F
6HR MIN TEMP:  76; 6HR MAX TEMP:  85;

WALLA WALLA    SUNNY     83  42  23 VRB5      30.11F
6HR MIN TEMP:  71; 6HR MAX TEMP:  83;

PENDLETON, OR  SUNNY     83  39  21 MISG      30.12F
6HR MIN TEMP:  72; 6HR MAX TEMP:  84;

$$



USA.gov is the U.S. government's official web portal to all federal, state and local government web resources and services.